map of AGA home
AGA - Airport
Location
City:  Agadir, Agadir-Ida-Outanane, Morocco
Name:Al Massira Airport
ICAO:GMAD
IATA:AGA

Details
Type:Airport (Aerodrome, Airfield)
Use:Public/Civil, International (customs port of entry)
Latitude:3019'30"N (30.324997)
Longitude:924'47"W (-9.413066)
Datum:WGS 1984
Elevation:250 ft (76 m)
Variation:2.57W (WMM2015 magnetic declination)
0.11 annual change
Runways:1
Longest:10499 × 148 ft (3200 × 45 m), paved

Time
Time Zone:UTC+0 (DST+1)
Local Time:

Weather
METAR:GMAD 202000Z 23004KT 190V270 9999 SCT026 SCT083 14/08 Q1012 NOSIG
TAF:GMAD 201700Z 2018/2124 20014KT 9999 SCT016
BECMG 2106/2108 12004KT 6000 BKN016
TEMPO 2108/2124 SHRA

Related Locations
Nearby:
Farthest:NLK: 12259 mi / 19729 km
Norfolk Island, NF

Find:

   beyond  
but within

Other Information
Maps:
NOTAMs:
Links:
Sources:

  
flag of Morocco   

Sectional Chart

Flight Planning
at skyvector.com

Satellite Image

Google Maps Satellite view

 

Copyright © 2004-2017 Karl L. Swartz. All rights reserved.
The Great Circle Mapper name and logo are trademarks of the Great Circle Mapper.
All other trademarks mentioned herein belong to their respective owners.
Please see credits for attibutions and further copyright information.

  Follow gcmap on Facebook Follow gcmap on Twitter Follow gcmap on Google+ GCmap on LinkedIn

hCard Microformat

Geo Microformat